Regional Weather Roundup
Issued by NWS

Home | Current Version | Previous Version | Text Only | Print | Product List | Glossary Off
Versions: 1 2 3 4 5 6 7 8 9 10 11 12 13 14 15 16 17 18 19 20 21 22 23 24 25 26 27 28 29 30 31 32 33 34 35 36 37 38 39 40 41 42 43 44 45 46 47 48 49 50

000
ASUS43 KBIS 241902
RWRND

NORTH DAKOTA REGIONAL WEATHER ROUNDUP
NATIONAL WEATHER SERVICE BISMARCK ND
200 PM CDT THU MAY 24 2018

NOTE: "FAIR" INDICATES FEW OR NO CLOUDS BELOW 12,000 FEET WITH NO
SIGNIFICANT WEATHER AND/OR OBSTRUCTIONS TO VISIBILITY.


NDZ001>003-009>011-017-242000-
NORTHWEST NORTH DAKOTA

CITY           SKY/WX    TMP DP  RH WIND       PRES   REMARKS
WILLISTON      PTSUNNY   69  58  67 SW17G25   29.77S
MINOT          SUNNY     86  49  27 S8        29.71F
MINOT AFB      MOSUNNY   85  51  30 S14       29.69F
$$

NDZ018>021-031>035-040>046-242000-
SOUTHWEST NORTH DAKOTA

CITY           SKY/WX    TMP DP  RH WIND       PRES   REMARKS
BISMARCK       SUNNY     83  55  38 SW10      29.78S
DICKINSON      MOSUNNY   77  53  43 W18G28    29.81S
GARRISON         N/A     82  50  32 W17G26    29.75S
HETTINGER ARPT PTSUNNY   77  53  43 W17G29    29.87S
$$

NDZ004>008-012>016-024-026-027-054-242000-
NORTHEAST NORTH DAKOTA

CITY           SKY/WX    TMP DP  RH WIND       PRES   REMARKS
GRAND FORKS    PTSUNNY   85  60  42 S15G24    29.76F
GRND FRKS AFB  FAIR      85  60  42 S14       29.75F
DEVILS LAKE    FAIR      83  57  41 SE13      29.76F
$$

NDZ022-023-025-028>030-036>039-047>053-242000-
SOUTHEAST NORTH DAKOTA

CITY           SKY/WX    TMP DP  RH WIND       PRES   REMARKS
FARGO          FAIR      84  58  40 S14G21    29.82F
JAMESTOWN      SUNNY     84  58  40 S15G22    29.78F
$$





USA.gov is the U.S. government's official web portal to all federal, state and local government web resources and services.